This is the latest recevied weather packets stored in our database for station/object IZ1UQG-1. If no packets are shown the sender has not sent any weather packets the latest 10 day(s).
| Time | Temp. | Humidity | Pressure | Rain* | Wind** | Luminosity | Snow |
|---|---|---|---|---|---|---|---|
| 1777874638 | 15.56° C | 56% | 1017.9 hPa | 168.66 mm | - | - | - |
| 1777874338 | 15.56° C | 56% | 1017.7 hPa | 107.44 mm | - | - | - |
| 1777874038 | 15.56° C | 56% | 1017.7 hPa | 160.78 mm | - | - | - |
| 1777873738 | 15.56° C | 56% | 1017.6 hPa | 136.4 mm | - | - | - |
| 1777873438 | 15.56° C | 56% | 1017.6 hPa | 171.2 mm | - | - | - |
| 1777873138 | 15.56° C | 56% | 1017.4 hPa | 145.8 mm | - | - | - |
| 1777872838 | 15.56° C | 56% | 1017.5 hPa | 196.09 mm | - | - | - |
| 1777872538 | 15.56° C | 55% | 1017.5 hPa | 160.78 mm | - | - | - |
| 1777872238 | 15.56° C | 55% | 1017.5 hPa | 141.73 mm | - | - | - |
| 1777871938 | 15.56° C | 55% | 1017.4 hPa | 149.86 mm | - | - | - |
| 1777871638 | 15.56° C | 55% | 1017.4 hPa | 196.6 mm | - | - | - |
| 1777871338 | 15.56° C | 55% | 1017.4 hPa | 154.18 mm | - | - | - |
| 1777871038 | 15.56° C | 55% | 1017.3 hPa | 160.27 mm | - | - | - |
| 1777870738 | 15.56° C | 55% | 1017.3 hPa | 93.47 mm | - | - | - |
| 1777870438 | 15.56° C | 55% | 1017.4 hPa | 217.17 mm | - | - | - |
| 1777870138 | 15° C | 55% | 1017.1 hPa | 202.69 mm | - | - | - |
| 1777869838 | 15° C | 55% | 1017 hPa | 155.19 mm | - | - | - |
| 1777869538 | 15° C | 55% | 1017.1 hPa | 115.82 mm | - | - | - |
| 1777869238 | 15° C | 55% | 1017 hPa | 211.58 mm | - | - | - |
| 1777868938 | 15° C | 55% | 1017 hPa | 212.6 mm | - | - | - |
| 1777868638 | 15.56° C | 55% | 1016.9 hPa | 166.88 mm | - | - | - |
| 1777868338 | 15.56° C | 55% | 1016.9 hPa | 166.88 mm | - | - | - |
| 1777868038 | 15.56° C | 54% | 1017 hPa | 196.09 mm | - | - | - |
| 1777867738 | 15.56° C | 54% | 1016.8 hPa | 176.78 mm | - | - | - |
| 1777867438 | 15.56° C | 54% | 1016.8 hPa | 162.81 mm | - | - | - |
* Rain latest hour (hover to see other rain measurements)
** Current wind speed in m/s (hover to see current wind gust speed)